Station CDEA2 - Cape Decision, AK Image indicating link to RSS feed of recent meteorological observations for station CDEA2


Conditions at CDEA2 as of
(5:22 pm AKDT on 06/20/2024)
0122 GMT on 06/21/2024:
     

Click on the graph icon in the table below to see a time series plot of the last five days of that observation.

5-day plot - Wind Direction Wind Direction (WDIR):WNW ( 300 deg true )
5-day plot - Wind Speed Wind Speed (WSPD): 8.9 kts
5-day plot - Wind Gust Wind Gust (GST): 11.1 kts
5-day plot - Atmospheric Pressure Atmospheric Pressure (PRES):30.09 in
5-day plot - Air Temperature Air Temperature (ATMP): 54.1 °F
5-day plot - Dew Point Dew Point (DEWP): 45.3 °F
5-day plot - Wind Speed at 10 Meters Wind Speed at 10 meters (WSPD10M): 9.7 kts
5-day plot - Wind Speed at 20 Meters Wind Speed at 20 meters (WSPD20M): 9.7 kts
5-day plot -  Wind Speed, Wind Gust and Atmospheric Pressure Combined plot of Wind Speed, Gust, and Air Pressure
Previous observations
TIME
(AKDT)
5-day plot - Wind Direction
WDIR
 
5-day plot - Wind Speed
WSPD
kts
5-day plot - Wind Gust
GST
kts
5-day plot - Wave Height
WVHT
ft
5-day plot - Dominant Wave Period
DPD
sec
5-day plot - Average Wave Period
APD
sec
5-day plot - Mean Wave Direction
MWD
 
5-day plot - Atmospheric Pressure
PRES
in
5-day plot - Pressure Tendency
PTDY
in
5-day plot - Air Temperature
ATMP
°F
5-day plot - Water Temperature
WTMP
°F
5-day plot - Dew Point
DEWP
°F
5-day plot - Salinity
SAL
psu
5-day plot - Visibility
VIS
nmi
5-day plot - Tide (above MLLW)
TIDE
ft
2024-06-20 04:22 pmWNW 11.1 12.0----30.09- 54.9- 45.1---
2024-06-20 03:22 pmWNW 12.0 14.0----30.10- 55.8- 44.6---
2024-06-20 02:22 pmWNW 8.0 9.9----30.11- 55.4- 43.9---
2024-06-20 01:22 pm E 1.9 5.1----30.12- 53.6- 43.7---
2024-06-20 12:22 pmESE 5.1 8.9----30.13- 51.8- 42.8---
2024-06-20 11:22 am SE 5.1 8.0----30.13- 50.0- 42.3---
2024-06-20 10:22 am SE 7.0 9.9----30.13- 49.3- 41.7---
2024-06-20 09:22 amESE 5.1 6.0----30.14- 48.6- 41.9---
2024-06-20 08:22 am SE 1.9 5.1----30.14- 48.2- 41.9---
2024-06-20 07:22 am SE 5.1 5.1----30.13- 47.5- 41.5---
2024-06-20 06:22 am S 2.9 4.1----30.13- 47.8- 42.6---
2024-06-20 05:22 am- 0.0 1.9----30.12- 48.2- 43.2---
2024-06-20 04:22 amWSW 1.9 6.0----30.12- 48.0- 43.0---
2024-06-20 03:22 am W 1.9 2.9----30.12- 48.2- 42.8---
2024-06-20 02:22 am NW 1.0 2.9----30.12- 48.0- 42.8---
2024-06-20 01:22 am W 7.0 8.9----30.12- 48.0- 43.0---
2024-06-20 12:22 amWSW 5.1 6.0----30.11- 48.2- 43.2---
2024-06-19 11:22 pmWSW 7.0 8.0----30.12- 48.6- 43.3---
2024-06-19 10:22 pm W 6.0 6.0----30.12- 48.7- 43.2---
2024-06-19 09:22 pm W 8.0 8.9----30.11- 48.7- 42.8---
2024-06-19 08:22 pmWNW 9.9 12.0----30.10- 49.3- 42.8---
2024-06-19 07:22 pm W 11.1 13.0----30.10- 49.6- 43.2---
2024-06-19 06:22 pm W 14.0 17.1----30.11- 50.4- 43.5---